DW6016 Weather Reports


Display with metric or nautical units.
time (UTC)temp
F
wind
direction
speed
MPH
gust
MPH
rain 1hr
in
rain 24hr
in
rain mn
in
humidity
%
barometer
mb
20260904210030 65 310 1.0 2.0 0.00 0.07 0.07 75 1013.9
20260904205526 65 305 0.0 1.0 0.00 0.07 0.07 72 1013.8
20260904205022 65 313 0.0 0.0 0.00 0.07 0.07 71 1014.0
20260904204518 65 309 0.0 0.0 0.00 0.07 0.07 73 1014.0
20260904204014 65 304 2.0 2.0 0.00 0.07 0.07 71 1013.7
20260904203509 65 298 1.0 3.0 0.00 0.07 0.07 71 1013.8
20260904203006 65 311 1.0 1.0 0.00 0.07 0.07 71 1013.7
20260904202501 65 297 1.0 1.0 0.00 0.07 0.07 70 1013.7
20260904201957 66 226 0.0 1.0 0.00 0.07 0.07 69 1013.7
20260904201452 66 334 1.0 2.0 0.00 0.07 0.07 70 1013.9
20260904200948 67 282 0.0 1.0 0.00 0.07 0.07 70 1013.9
20260904200446 66 348 1.0 2.0 0.00 0.07 0.07 71 1013.9
20260904195941 65 305 0.0 0.0 0.00 0.07 0.07 75 1013.9
20260904195439 66 296 2.0 3.0 0.00 0.07 0.07 71 1013.8
20260904194938 68 98 1.0 2.0 0.00 0.07 0.07 68 1013.9
20260904194433 66 311 1.0 1.0 0.00 0.07 0.07 70 1013.7
20260904193928 65 337 0.0 1.0 0.00 0.07 0.07 66 1014.0
20260904193424 65 107 2.0 2.0 0.00 0.07 0.07 65 1014.1
20260904192919 65 31 1.0 2.0 0.00 0.07 0.07 66 1014.0
20260904192414 66 305 0.0 1.0 0.00 0.07 0.07 64 1014.0
20260904191910 66 290 1.0 1.0 0.00 0.07 0.07 65 1014.2
20260904191407 66 304 0.0 0.0 0.00 0.07 0.07 65 1014.2
20260904190903 66 288 1.0 1.0 0.00 0.07 0.07 66 1014.2
20260904190358 66 248 1.0 1.0 0.00 0.07 0.07 67 1014.4
20260904185855 65 234 1.0 2.0 0.00 0.07 0.07 64 1014.0
20260904185350 66 262 1.0 1.0 0.00 0.07 0.07 67 1014.4
20260904184849 65 289 1.0 1.0 0.00 0.07 0.07 66 1014.1
20260904184344 64 327 0.0 0.0 0.00 0.07 0.07 69 1014.0
20260904183840 65 73 2.0 2.0 0.00 0.07 0.07 67 1014.0
20260904183335 64 347 0.0 1.0 0.00 0.07 0.07 69 1014.0
20260904182830 64 38 1.0 2.0 0.00 0.07 0.07 70 1014.0
20260904182325 66 304 0.0 0.0 0.00 0.07 0.07 73 1014.0
20260904181821 65 303 0.0 0.0 0.00 0.07 0.07 72 1014.1
20260904181320 64 302 0.0 0.0 0.00 0.07 0.07 75 1013.9
20260904180816 64 311 0.0 0.0 0.00 0.07 0.07 74 1013.9
20260904180311 65 319 0.0 0.0 0.00 0.07 0.07 74 1013.9
20260904175810 64 227 1.0 1.0 0.00 0.07 0.07 73 1013.9
20260904175308 63 312 0.0 1.0 0.00 0.07 0.07 75 1013.8
20260904174803 63 316 0.0 1.0 0.00 0.07 0.07 80 1013.9
20260904174259 63 152 1.0 1.0 0.00 0.07 0.07 74 1013.8
20260904173755 63 308 0.0 1.0 0.00 0.07 0.07 75 1013.8
20260904173250 63 336 0.0 1.0 0.00 0.07 0.07 75 1013.8
20260904172746 62 324 1.0 1.0 0.00 0.07 0.07 79 1013.6
20260904172245 62 320 1.0 1.0 0.00 0.07 0.07 83 1013.9
20260904171740 61 349 1.0 1.0 0.00 0.07 0.07 82 1013.8
20260904171235 61 315 0.0 0.0 0.00 0.07 0.07 85 1013.8
20260904170732 60 312 0.0 0.0 0.00 0.07 0.07 88 1013.7
20260904170228 60 351 1.0 1.0 0.00 0.07 0.07 89 1013.7
20260904165727 60 316 0.0 0.0 0.00 0.07 0.07 91 1013.7
20260904165221 59 294 1.0 1.0 0.00 0.07 0.07 92 1013.8
20260904164715 59 317 0.0 0.0 0.00 0.07 0.07 92 1013.6
20260904164210 58 299 1.0 1.0 0.00 0.07 0.07 94 1013.7
20260904163706 58 312 0.0 0.0 0.00 0.07 0.07 97 1013.7
20260904163202 58 307 0.0 0.0 0.00 0.07 0.07 99 1013.6
20260904162700 57 306 0.0 0.0 0.00 0.07 0.07 99 1013.5
20260904162155 57 307 0.0 0.0 0.00 0.07 0.07 99 1013.6
20260904161651 57 308 0.0 0.0 0.00 0.07 0.07 99 1013.4
20260904161146 56 308 0.0 0.0 0.00 0.07 0.07 99 1013.5
20260904160642 56 310 0.0 1.0 0.00 0.07 0.07 99 1013.5
20260904160137 56 308 0.0 0.0 0.07 0.07 0.07 99 1013.4
20260904155632 56 309 0.0 0.0 0.07 0.07 0.07 99 1013.7
20260904155126 55 309 0.0 0.0 0.00 0.06 0.06 99 1013.7
20260904154625 55 312 0.0 0.0 0.00 0.06 0.06 99 1013.7
20260904154125 55 310 1.0 1.0 0.00 0.06 0.06 99 1013.6
20260904153620 55 312 0.0 0.0 0.00 0.06 0.06 99 1013.6
20260904153116 55 312 0.0 0.0 0.00 0.06 0.06 99 1013.6
20260904152612 55 306 0.0 0.0 0.00 0.06 0.06 99 1013.6
20260904152107 54 306 0.0 0.0 0.00 0.06 0.06 99 1013.5
20260904151602 54 306 0.0 0.0 0.00 0.06 0.06 99 1013.4
20260904151101 54 306 0.0 0.0 0.00 0.06 0.06 99 1013.5
20260904150556 54 306 0.0 0.0 0.00 0.06 0.06 99 1013.4
20260904150056 54 306 0.0 0.0 0.00 0.06 0.06 99 1013.2
20260904145555 54 306 0.0 0.0 0.00 0.06 0.06 99 1013.3
20260904145050 54 306 0.0 0.0 0.00 0.06 0.06 99 1013.2
20260904144546 53 306 0.0 0.0 0.00 0.06 0.06 99 1013.0
20260904144042 53 306 0.0 0.0 0.00 0.06 0.06 99 1013.1
20260904143538 53 306 0.0 0.0 0.00 0.06 0.06 99 1013.0
20260904143034 53 306 0.0 0.0 0.00 0.06 0.06 99 1012.9
20260904142531 53 311 0.0 0.0 0.00 0.06 0.06 99 1013.0
20260904142026 53 311 0.0 0.0 0.00 0.06 0.06 99 1013.0
20260904141521 53 311 0.0 0.0 0.00 0.06 0.06 99 1012.7
20260904141017 53 311 0.0 0.0 0.00 0.06 0.06 99 1012.6
20260904140516 53 312 0.0 0.0 0.00 0.06 0.06 99 1012.6
20260904140017 53 313 0.0 0.0 0.00 0.06 0.06 99 1012.5
20260904135515 53 308 0.0 0.0 0.00 0.06 0.06 99 1012.7
20260904135012 53 307 0.0 0.0 0.00 0.06 0.06 99 1012.6
20260904134507 53 314 0.0 0.0 0.05 0.06 0.06 99 1012.5
20260904134001 53 313 0.0 0.0 0.05 0.06 0.06 99 1012.5
20260904133455 53 305 0.0 0.0 0.00 0.05 0.05 99 1012.6
20260904132951 53 305 0.0 0.0 0.00 0.05 0.05 99 1012.5
20260904132452 53 305 0.0 0.0 0.00 0.05 0.05 99 1012.6
20260904131946 53 305 0.0 0.0 0.00 0.05 0.05 99 1012.4
20260904131441 53 305 0.0 0.0 0.00 0.05 0.05 99 1012.3
20260904130937 53 305 0.0 0.0 0.00 0.05 0.05 99 1012.4
20260904130436 53 305 0.0 0.0 0.00 0.05 0.05 99 1012.3
20260904125930 53 305 0.0 0.0 0.00 0.05 0.05 99 1012.4
20260904125427 53 305 0.0 0.0 0.00 0.05 0.05 99 1012.3
20260904124926 53 305 0.0 0.0 0.00 0.05 0.05 99 1012.2
20260904124423 53 305 0.0 0.0 0.00 0.05 0.05 99 1012.1
20260904123919 53 305 0.0 0.0 0.00 0.05 0.05 99 1012.3
20260904123418 53 305 0.0 0.0 0.00 0.05 0.05 99 1012.1
20260904122914 53 305 0.0 0.0 0.00 0.05 0.05 99 1012.1
20260904122413 53 305 0.0 0.0 0.00 0.05 0.05 99 1012.1
20260904121908 53 305 0.0 0.0 0.00 0.05 0.05 99 1011.8
20260904121405 53 305 0.0 0.0 0.00 0.05 0.05 99 1011.9
20260904120901 53 305 0.0 0.0 0.00 0.05 0.05 99 1011.8
20260904120356 53 305 0.0 0.0 0.00 0.05 0.05 99 1011.7
20260904115852 53 305 0.0 0.0 0.00 0.05 0.05 99 1011.8
20260904115346 53 305 0.0 0.0 0.07 0.05 0.05 99 1011.7
20260904114841 53 305 0.0 0.0 0.07 0.05 0.05 99 1011.9
20260904114336 53 305 0.0 0.0 0.05 0.04 0.04 99 1011.9
20260904113831 53 305 0.0 0.0 0.05 0.04 0.04 99 1011.9
20260904113330 53 305 0.0 0.0 0.00 0.03 0.03 99 1011.7
20260904112825 53 305 0.0 0.0 0.00 0.03 0.03 99 1011.8
20260904112321 53 305 0.0 0.0 0.07 0.03 0.03 99 1011.6
20260904111816 53 305 0.0 0.0 0.07 0.03 0.03 99 1011.8
20260904111312 54 305 0.0 0.0 0.05 0.02 0.02 99 1011.5
20260904110808 53 305 0.0 0.0 0.05 0.02 0.02 99 1011.4
20260904110306 53 305 0.0 0.0 0.05 0.02 0.02 99 1011.5
20260904105801 53 305 0.0 0.0 0.07 0.01 0.01 99 1011.8
20260904105256 53 305 0.0 0.0 0.07 0.01 0.01 99 1011.5
20260904104751 53 305 0.0 0.0 0.00 0.00 0.00 99 1011.7
20260904104247 53 305 0.0 0.0 0.00 0.00 0.00 99 1011.5
20260904103744 53 305 0.0 0.0 0.00 0.00 0.00 99 1011.6
20260904103238 53 305 0.0 0.0 0.00 0.00 0.00 99 1011.4
20260904102733 53 305 0.0 0.0 0.00 0.00 0.00 99 1011.5
20260904102229 53 305 0.0 0.0 0.00 0.00 0.00 99 1011.3
20260904101725 53 305 0.0 0.0 0.00 0.00 0.00 99 1011.5
20260904101221 53 305 0.0 0.0 0.00 0.00 0.00 99 1011.4
20260904100717 53 305 0.0 0.0 0.00 0.00 0.00 99 1011.4
20260904100213 53 305 0.0 0.0 0.00 0.00 0.00 99 1011.4
20260904095712 53 305 0.0 0.0 0.00 0.00 0.00 99 1011.4
20260904095206 53 305 0.0 0.0 0.00 0.00 0.00 99 1011.4
20260904094702 53 305 0.0 0.0 0.00 0.00 0.00 99 1011.0
20260904094156 53 305 0.0 0.0 0.00 0.00 0.00 99 1011.1
20260904093654 53 305 0.0 0.0 0.00 0.00 0.00 99 1011.1
20260904093153 53 305 0.0 0.0 0.00 0.00 0.00 99 1011.2
20260904092649 53 305 0.0 0.0 0.00 0.00 0.00 99 1011.2
20260904092145 53 305 0.0 0.0 0.00 0.00 0.00 99 1011.3
20260904091641 53 305 0.0 0.0 0.00 0.00 0.00 99 1011.1
20260904091140 53 305 0.0 0.0 0.00 0.00 0.00 99 1011.1
20260904090636 54 305 0.0 0.0 0.00 0.00 0.00 99 1011.4
20260904090132 54 305 0.0 0.0 0.00 0.00 0.00 99 1011.2
20260904085631 54 305 0.0 0.0 0.00 0.00 0.00 99 1010.9
20260904085126 54 305 0.0 0.0 0.00 0.00 0.00 99 1011.0
20260904084621 54 305 0.0 0.0 0.00 0.00 0.00 99 1011.1
20260904084118 54 305 0.0 0.0 0.00 0.00 0.00 99 1011.0
20260904083614 54 305 0.0 0.0 0.00 0.00 0.00 99 1011.1
20260904083109 54 305 0.0 0.0 0.00 0.00 0.00 99 1011.0
20260904082604 54 305 0.0 0.0 0.00 0.00 0.00 99 1011.0
20260904082100 54 305 0.0 0.0 0.00 0.00 0.00 99 1011.2
20260904081555 54 305 0.0 0.0 0.00 0.00 0.00 99 1011.3
20260904081050 55 305 0.0 0.0 0.00 0.00 0.00 99 1011.1
20260904080546 55 305 0.0 0.0 0.00 0.00 0.00 99 1011.1
20260904080042 55 305 0.0 0.0 0.00 0.00 0.00 99 1011.3
20260904075537 55 305 0.0 0.0 0.00 0.00 0.00 99 1011.1
20260904075032 55 305 0.0 0.0 0.00 0.00 0.00 99 1011.3
20260904074531 55 305 0.0 0.0 0.00 0.00 0.00 99 1011.3
20260904074026 55 305 0.0 0.0 0.00 0.00 0.00 99 1011.2
20260904073521 55 305 0.0 0.0 0.00 0.00 0.00 99 1011.2
20260904073018 55 305 0.0 0.0 0.00 0.00 0.00 99 1011.1
20260904072513 55 305 0.0 0.0 0.00 0.00 0.00 99 1010.9
20260904072008 55 305 0.0 0.0 0.00 0.00 0.00 99 1011.1
20260904071503 55 305 0.0 0.0 0.00 0.00 0.00 99 1011.0
20260904070958 55 305 0.0 1.0 0.00 0.00 0.00 99 1011.1
20260904070456 55 305 0.0 0.0 0.00 0.00 0.00 99 1011.2
20260904065951 55 305 0.0 0.0 0.00 0.23 0.23 99 1011.1
20260904065447 55 305 0.0 0.0 0.00 0.23 0.23 99 1011.0
20260904064942 55 305 0.0 0.0 0.00 0.23 0.23 99 1011.3
20260904064439 55 305 0.0 0.0 0.00 0.23 0.23 99 1011.0
20260904063933 55 305 0.0 0.0 0.00 0.23 0.23 99 1011.0
20260904063430 55 305 0.0 0.0 0.00 0.23 0.23 99 1011.0
20260904062925 55 305 0.0 0.0 0.00 0.23 0.23 99 1010.9
20260904062421 55 305 0.0 0.0 0.00 0.23 0.23 99 1011.0
20260904061916 55 305 0.0 0.0 0.00 0.23 0.23 99 1011.0
20260904061413 55 305 0.0 0.0 0.00 0.23 0.23 99 1010.9
20260904060909 55 305 0.0 0.0 0.00 0.23 0.23 99 1010.9
20260904060404 55 305 0.0 0.0 0.00 0.23 0.23 99 1011.1
20260904055900 55 305 0.0 0.0 0.00 0.23 0.23 99 1011.1
20260904055355 55 305 0.0 0.0 0.00 0.23 0.23 99 1011.0
20260904054850 55 305 0.0 0.0 0.00 0.23 0.23 99 1010.9
20260904054346 55 305 0.0 0.0 0.00 0.23 0.23 99 1011.1
20260904053842 55 305 0.0 0.0 0.00 0.23 0.23 99 1011.4
20260904053341 55 305 0.0 0.0 0.00 0.23 0.23 99 1011.0
20260904052837 55 305 0.0 0.0 0.00 0.23 0.23 99 1011.1
20260904052333 55 305 0.0 0.0 0.00 0.23 0.23 99 1011.2
20260904051829 55 305 0.0 0.0 0.00 0.23 0.23 99 1011.2
20260904051325 55 305 0.0 0.0 0.00 0.23 0.23 99 1011.2
20260904050819 55 305 0.0 0.0 0.00 0.23 0.23 99 1011.0
20260904050317 55 305 0.0 0.0 0.00 0.23 0.23 99 1011.3
20260904045816 55 305 0.0 0.0 0.00 0.23 0.23 99 1011.3
20260904045311 55 305 0.0 0.0 0.00 0.23 0.23 98 1011.2
20260904044806 55 305 0.0 0.0 0.00 0.23 0.23 98 1011.3
20260904044303 55 305 0.0 0.0 0.00 0.23 0.23 98 1011.4
20260904043758 55 305 0.0 0.0 0.00 0.23 0.23 98 1011.4
20260904043254 55 305 0.0 0.0 0.00 0.23 0.23 98 1011.3
20260904042749 55 304 0.0 0.0 0.00 0.23 0.23 98 1011.4
20260904042246 55 304 0.0 0.0 0.00 0.23 0.23 98 1011.3
20260904041745 55 304 0.0 0.0 0.00 0.23 0.23 97 1011.2
20260904041242 55 304 0.0 0.0 0.00 0.23 0.23 97 1011.5
20260904040737 55 304 0.0 0.0 0.00 0.23 0.23 97 1011.2
20260904040232 55 304 0.0 0.0 0.00 0.23 0.23 97 1011.2
20260904035729 55 304 0.0 0.0 0.00 0.23 0.23 97 1011.3
20260904035224 55 321 0.0 0.0 0.00 0.23 0.23 97 1011.4
20260904034722 55 321 0.0 0.0 0.00 0.23 0.23 96 1011.3
20260904034218 55 321 0.0 0.0 0.00 0.23 0.23 96 1011.1
20260904033714 55 321 0.0 0.0 0.00 0.23 0.23 96 1011.1
20260904033211 55 321 0.0 0.0 0.00 0.23 0.23 95 1011.0
20260904032707 55 321 0.0 0.0 0.00 0.23 0.23 95 1011.0
20260904032206 55 321 0.0 0.0 0.00 0.23 0.23 95 1011.0
20260904031706 55 321 0.0 0.0 0.00 0.23 0.23 94 1010.8
20260904031201 56 321 0.0 0.0 0.00 0.23 0.23 94 1010.7
20260904030657 56 321 0.0 0.0 0.00 0.23 0.23 93 1010.8
20260904030152 56 321 0.0 0.0 0.00 0.23 0.23 92 1010.7
20260904025648 56 321 0.0 0.0 0.00 0.23 0.23 92 1010.7
20260904025143 57 321 0.0 0.0 0.00 0.23 0.23 91 1010.6
20260904024638 57 321 0.0 0.0 0.00 0.23 0.23 90 1010.5
20260904024134 57 321 0.0 0.0 0.00 0.23 0.23 89 1010.6
20260904023630 58 321 0.0 0.0 0.00 0.23 0.23 89 1010.5
20260904023126 58 321 0.0 0.0 0.00 0.23 0.23 89 1010.7
20260904022625 58 321 0.0 0.0 0.00 0.23 0.23 89 1010.6
20260904022122 59 321 0.0 0.0 0.00 0.23 0.23 88 1010.5
20260904021618 59 321 0.0 0.0 0.00 0.23 0.23 87 1010.5
20260904021113 59 321 0.0 0.0 0.00 0.23 0.23 87 1010.6
20260904020609 59 330 0.0 0.0 0.00 0.23 0.23 86 1010.6
20260904015557 59 322 0.0 1.0 0.00 0.23 0.23 86 1010.6
20260904015056 59 326 0.0 0.0 0.00 0.23 0.23 86 1010.6
20260904014550 59 312 0.0 0.0 0.00 0.23 0.23 86 1010.5
20260904014046 59 338 0.0 0.0 0.00 0.23 0.23 85 1010.5
20260904013542 59 303 0.0 0.0 0.00 0.23 0.23 86 1010.6
20260904013039 59 318 0.0 1.0 0.00 0.23 0.23 87 1010.8
20260904012538 60 132 3.0 5.0 0.00 0.23 0.23 84 1010.5
20260904012032 60 306 0.0 1.0 0.00 0.23 0.23 84 1010.7
20260904011532 60 274 1.0 1.0 0.00 0.23 0.23 84 1011.0
20260904011027 60 308 0.0 0.0 0.00 0.23 0.23 84 1010.7
20260904010524 60 50 1.0 1.0 0.00 0.23 0.23 85 1010.7
20260904010020 60 306 0.0 0.0 0.00 0.23 0.23 86 1010.7
20260904005519 60 328 0.0 1.0 0.00 0.23 0.23 86 1010.7
20260904005015 60 294 1.0 1.0 0.00 0.23 0.23 84 1010.7
20260904004510 60 317 0.0 1.0 0.00 0.23 0.23 83 1010.6
20260904004005 60 307 0.0 0.0 0.00 0.23 0.23 81 1010.8
20260904003501 60 295 1.0 1.0 0.00 0.23 0.23 80 1010.7
20260904002956 60 303 0.0 0.0 0.00 0.23 0.23 81 1010.6
20260904002452 60 307 0.0 0.0 0.00 0.23 0.23 80 1010.4
20260904001950 60 288 1.0 1.0 0.00 0.23 0.23 76 1010.7
20260904001447 61 312 0.0 0.0 0.00 0.23 0.23 83 1010.8
20260904000941 61 314 0.0 0.0 0.00 0.23 0.23 85 1010.9
20260904000441 60 318 0.0 0.0 0.00 0.23 0.23 86 1011.0
20260903235936 60 312 0.0 0.0 0.00 0.23 0.23 86 1010.9
20260903235432 59 255 1.0 1.0 0.00 0.23 0.23 86 1011.1
20260903234932 59 310 0.0 0.0 0.00 0.23 0.23 89 1010.9
20260903234428 59 327 0.0 0.0 0.00 0.23 0.23 88 1010.7
20260903233924 58 307 0.0 0.0 0.00 0.23 0.23 88 1011.1
20260903233420 58 299 1.0 1.0 0.00 0.23 0.23 89 1010.9
20260903232920 58 306 0.0 0.0 0.00 0.23 0.23 89 1010.8
20260903232415 58 359 0.0 0.0 0.00 0.23 0.23 88 1010.9
20260903231915 58 358 1.0 1.0 0.00 0.23 0.23 88 1011.1
20260903231409 58 307 0.0 0.0 0.00 0.23 0.23 89 1011.1
20260903230904 58 307 0.0 1.0 0.00 0.23 0.23 88 1011.1
20260903230400 58 285 1.0 1.0 0.00 0.23 0.23 86 1011.4
20260903225856 58 308 1.0 1.0 0.00 0.23 0.23 85 1011.3
20260903225352 59 309 2.0 3.0 0.00 0.23 0.23 85 1011.2
20260903224848 59 322 3.0 3.0 0.00 0.23 0.23 84 1011.2
20260903224344 59 147 1.0 2.0 0.00 0.23 0.23 82 1011.3
20260903223839 60 297 3.0 3.0 0.00 0.23 0.23 80 1011.4
20260903223338 60 344 1.0 1.0 0.00 0.23 0.23 82 1011.2
20260903222833 61 278 4.0 7.0 0.00 0.23 0.23 79 1011.0
20260903222332 61 305 1.0 2.0 0.00 0.23 0.23 77 1010.9
20260903221827 62 299 3.0 5.0 0.00 0.23 0.23 77 1010.9
20260903221326 63 319 0.0 0.0 0.00 0.23 0.23 78 1011.1
20260903220824 62 297 0.0 0.0 0.00 0.23 0.23 80 1010.9
20260903220319 62 251 1.0 1.0 0.00 0.23 0.23 78 1010.9
20260903215817 62 303 0.0 0.0 0.00 0.23 0.23 79 1011.0
20260903215314 62 314 0.0 1.0 0.00 0.23 0.23 78 1010.7
20260903214811 62 312 0.0 0.0 0.00 0.23 0.23 78 1011.1
20260903214308 62 308 0.0 0.0 0.00 0.23 0.23 79 1011.0
20260903213802 61 344 0.0 1.0 0.00 0.23 0.23 79 1011.0
20260903213258 62 302 1.0 1.0 0.00 0.23 0.23 79 1011.1
20260903212753 62 291 1.0 1.0 0.00 0.23 0.23 78 1011.1
20260903212250 62 311 0.0 0.0 0.00 0.23 0.23 81 1011.3
20260903211743 61 316 0.0 1.0 0.00 0.23 0.23 81 1011.1
20260903211240 61 316 0.0 0.0 0.00 0.23 0.23 79 1011.4
20260903210736 61 316 0.0 0.0 0.00 0.23 0.23 80 1011.1
20260903210231 61 212 2.0 2.0 0.00 0.23 0.23 81 1011.2